EGGWLFAT

Guest
Details From EGGW - London Luton
To LFAT - Le Touquet Paris Plage
Flight Number -
Tags Real Decoded
Created
Modified
Stats Distance 112 nm / 207 km
Max Altitude 0 ft / 0 m
Waypoints 5
Social Downloads 19
Likes 0
Share VATSIM

Download

Looking for another format? Having issues loading an existing format? Contact us
Advertisement - Login to hide

Notes

Decoded

Route

EGGW LAM DET LYD LFAT

ID Type Via Altitude Latitude Longitude Leg Dist Tot Dist Heading (true) Name
O EGGW APT - 0 ft / 0 m 51.87202˚ -0.38355˚ - 0 nm - -
LAM VOR - 0 ft / 0 m 51.64611˚ 0.15167˚ 24 nm 24 nm 124° / 125° LAMBOURNE VOR-DME
DET VOR - 0 ft / 0 m 51.30389˚ 0.59722˚ 26 nm 50 nm 141° / 141° DETLING VOR-DME
LYD VOR - 0 ft / 0 m 50.99972˚ 0.87861˚ 21 nm 71 nm 150° / 150° LYDD VOR-DME
O LFAT APT - 0 ft / 0 m 50.52398˚ 1.61247˚ 39 nm 111 nm 135° / 136° -

Altitude Profile

Advertisement - Login to hide

EGGW

Details ICAO EGGW (LTN)
Name London Luton
Region United Kingdom
Timezone Europe/London (UTC+1.0)
Stats Elevation 526 ft / 160 m (AMSL)
Location 51.874629° -0.368450°
Runways 1
Magnetic Variation 0.507° W

METAR

EGGW 241750Z AUTO 06011KT 9999 NCD 18/11 Q1018

Decode

TAF

TAF EGGW 241706Z 2418/2518 03010KT 9999 FEW018 TEMPO 2418/2507 6000 SHRA PROB30 TEMPO 2418/2506 3000 +SHRA BECMG 2423/2502 6000 BKN005 TEMPO 2423/2507 3000 BR BKN002 PROB40 2502/2507 0300 FG BKN000 BECMG 2509/2512 9999 BKN011 BECMG 2511/2514 SCT020

Decode

Departure Runways

ID Width Length Bearing (true) Bearing (mag) Surface Threshold Offset Overrun Length
08 151 ft / 46 m 7,066 ft / 2,154 m 74.35° 74.86° Asphalt 0 ft / 0 m 200 ft / 61 m
26 151 ft / 46 m 7,066 ft / 2,154 m 254.38° 254.89° Asphalt 272 ft / 83 m 0 ft / 0 m

LFAT

Details ICAO LFAT (LTQ)
Name Le Touquet Paris Plage
Region France
Timezone Europe/Paris (UTC+2.0)
Stats Elevation 35 ft / 11 m (AMSL)
Location 50.515857° 1.622729°
Runways 2
Magnetic Variation 0.297° E

METAR

LFAT 241800Z AUTO 33003KT 2500 -RA BR FEW037/// OVC086/// ///TCU 16/15 Q1016 TEMPO 3000 SHRA

Decode

TAF

Not found

Destination Runways

ID Width Length Bearing (true) Bearing (mag) Surface Threshold Offset Overrun Length
07 120 ft / 37 m 1,949 ft / 594 m 60.65° 60.35° Asphalt 0 ft / 0 m 0 ft / 0 m
14 131 ft / 40 m 6,050 ft / 1,844 m 133.54° 133.24° Asphalt 0 ft / 0 m 0 ft / 0 m
25 120 ft / 37 m 1,949 ft / 594 m 240.65° 240.35° Asphalt 750 ft / 229 m 0 ft / 0 m
32 131 ft / 40 m 6,050 ft / 1,844 m 313.56° 313.26° Asphalt 492 ft / 150 m 0 ft / 0 m

Approach Navaids

Runway Type Ident Frequency Range Bearing (true) Bearing (mag) Slope Elevation
14 Localiser LT 110.15 MHz 27 nm / 50 km 134.00° 133.70° - 35 ft / 11 m (AMSL)
14 Glidescope LT 110.15 MHz 27 nm / 50 km 134.00° 133.70° 3.00° 35 ft / 11 m (AMSL)
14 DME LT 110.15 MHz 27 nm / 50 km - - - 35 ft / 11 m (AMSL)

Popular Alternatives